Home > Weather > Manaus > Past weeks

Flag for Brazil Weather for the Past 2 Weeks in Manaus, Amazonas, Brazil

Now
93 °F

Scattered clouds.


Feels Like: 105 °F
Forecast: 79 / 91 °F
Wind: 8 mph from East

Location: Manaus Aeroporto

Current Time: Feb 10, 2016 at 2:10:07 PM

Latest Report: Feb 10, 2016 at 1:00 PM


Visibility: N/A

Pressure: 29.86 "Hg

Humidity: 56%

Dew point: 75 °F

Location of ManausLocation

Historic Weather in Manaus — Graph

°F

Manaus Temperature Yesterday

Maximum temperature yesterday: 93 °F (at 2:00 PM)
Minimum temperature yesterday: 77 °F (at 4:00 AM)
Average temperature yesterday: 84 °F

High & Low Weather Summary for the Past Weeks

 TemperatureHumidityPressure
High93 °F (Jan 30, 2:00 PM)94% (Feb 2, 5:00 AM)29.98 "Hg (Feb 2, 5:00 AM)
Low73 °F (Feb 3, 6:00 AM)46% (Jan 28, 2:00 PM)29.56 "Hg (Feb 7, 8:00 PM)
Average82 °F75%29.86 "Hg
* Reported Jan 26 1:00 PM — Feb 10 1:00 PM, Manaus, Weather by CustomWeather, © 2016

Note: Actual official high and low records may vary slightly from our data, if they occured in-between our weather recording intervals... More about our weather records

Advertising

Manaus Weather History for the Previous 24 Hours

 ConditionsComfort  
Time TempWeatherWind HumidityBarometerVisibility
1:00 PM
Wed, Feb 10
93 °FScattered clouds.8 mph56%29.86 "HgN/A
12:00 PM91 °FScattered clouds.8 mph56%29.89 "HgN/A
11:00 AM90 °FScattered clouds.12 mph59%29.92 "HgN/A
10:00 AM88 °FScattered clouds.9 mph66%29.95 "HgN/A
9:00 AM86 °FScattered clouds.8 mph70%29.92 "HgN/A
8:00 AM84 °FScattered clouds.6 mph74%29.92 "HgN/A
7:00 AM81 °FPassing clouds.No wind84%29.89 "HgN/A
6:00 AM81 °FClear.3 mph74%29.86 "Hg10 mi
5:00 AM79 °FClear.3 mph89%29.83 "Hg10 mi
4:00 AM79 °FClear.No wind84%29.83 "Hg10 mi
3:00 AM79 °FClear.1 mph89%29.83 "Hg10 mi
2:00 AM81 °FClear.2 mph79%29.86 "Hg10 mi
1:00 AM81 °FClear.3 mph79%29.86 "Hg10 mi
12:00 AM81 °FClear.2 mph79%29.89 "Hg10 mi
11:00 PM
Tue, Feb 9
82 °FClear.2 mph74%29.89 "Hg10 mi
10:00 PM82 °FClear.2 mph74%29.89 "Hg10 mi
9:00 PM84 °FClear.3 mph74%29.86 "Hg10 mi
8:00 PM84 °FClear.3 mph70%29.83 "Hg10 mi
7:00 PM86 °FPassing clouds.3 mph66%29.80 "HgN/A
6:00 PM88 °FPassing clouds.6 mph59%29.77 "HgN/A
5:00 PM91 °FPassing clouds.6 mph56%29.77 "HgN/A
4:00 PM91 °FScattered clouds.8 mph52%29.80 "HgN/A
3:00 PM91 °FScattered clouds.7 mph56%29.83 "HgN/A
2:00 PM93 °FScattered clouds.6 mph56%29.86 "HgN/A
Weather by CustomWeather, © 2016

See weather overviewHow to use our weather pages